Regional Weather Roundup
Issued by NWS Little Rock, AR

Home | Current Version | Previous Version | Text Only | Print | Product List | Glossary Off
Versions: 1 2 3 4 5 6 7 8 9 10 11 12 13 14 15 16 17 18 19 20 21 22 23 24 25 26 27 28 29 30 31 32 33 34 35 36 37 38 39 40 41 42 43 44 45 46 47 48 49

000
ASUS44 KLZK 230905
RWRLZK

WEATHER ROUNDUP FOR ARKANSAS
NATIONAL WEATHER SERVICE LITTLE ROCK AR
400 AM CDT WED JUL 23 2014

NOTE: "FAIR" INDICATES FEW OR NO CLOUDS BELOW 12,000 FEET WITH NO
SIGNIFICANT WEATHER AND/OR OBSTRUCTIONS TO VISIBILITY.

ARZ001-003-010-029-231000-
NORTHWEST ARKANSAS

CITY           SKY/WX    TMP DP  RH WIND       PRES   REMARKS
FAYETTEVILLE   MOCLDY    72  71  97 CALM      30.11S
FORT SMITH     CLEAR     78  74  87 N3        30.07S
HARRISON       CLOUDY    77  74  90 CALM      30.10S
BENTONVILLE    MOCLDY    75  72  88 W3        30.12R
ROGERS         MOCLDY    77  73  87 SW3       30.12R
SILOAM SPGS    MOCLDY    75  68  78 S3        30.12R
HIGHFILL       MOCLDY    75  74  96 CALM      30.11R
$$

ARZ004-005-016-231000-
NORTH CENTRAL ARKANSAS

CITY           SKY/WX    TMP DP  RH WIND       PRES   REMARKS
BATESVILLE     CLEAR     72  68  88 SW5       30.05S
FLIPPIN        CLEAR     75  66  73 W3        30.07S
MTN HOME       MOCLDY    74  71  91 CALM      30.06S
$$

ARZ040-041-231000-
WEST CENTRAL ARKANSAS

CITY           SKY/WX    TMP DP  RH WIND       PRES   REMARKS
MENA           CLEAR     73  72  94 CALM      30.10F
MOUNT IDA      CLEAR     69  68  96 CALM      30.06F FOG
$$

ARZ009-017-025-026-028-231000-
NORTHEAST ARKANSAS

CITY           SKY/WX    TMP DP  RH WIND       PRES   REMARKS
CORNING        FAIR      72  72 100 SW3       30.05R FOG
JONESBORO      CLEAR     72  68  87 W3        30.04S
NEWPORT        CLEAR     73  70  91 W3        30.05F
WALNUT RIDGE   CLEAR     73  57  56 SW5       30.04S
BLYTHEVILLE    CLEAR     74  70  87 CALM      30.04S
$$

ARZ022-023-033-042-044-231000-
CENTRAL ARKANSAS

CITY           SKY/WX    TMP DP  RH WIND       PRES   REMARKS
LITTLE ROCK    CLEAR     73  69  87 CALM      30.05F FOG
N LITTLE ROCK    N/A     73  70  92 W3        30.05F
JACKSONVILLE   CLEAR     69  67  96 W1        30.05F
SEARCY         CLEAR     69  69 100 CALM      30.06S FOG
HOT SPRINGS    CLEAR     71  69  93 CALM      30.07F
RUSSELLVILLE   CLEAR     74  71  91 CALM      30.05F
CLINTON        FAIR      70  70 100 CALM      30.07S FOG
$$

ARZ036-231000-
EAST ARKANSAS

CITY           SKY/WX    TMP DP  RH WIND       PRES   REMARKS
WEST MEMPHIS   CLEAR     72  72 100 CALM      30.03F
$$

ARZ050-053-066-070-073-231000-
SOUTHWEST ARKANSAS

CITY           SKY/WX    TMP DP  RH WIND       PRES   REMARKS
ARKADELPHIA    FAIR      69  69 100 CALM      30.07S FOG
CAMDEN         FOG       68  66  94 CALM      30.07R VSB 3/4
TEXARKANA      CLEAR     70  69  97 CALM      30.06F
EL DORADO      CLEAR     70  69  97 CALM      30.07R
DE QUEEN       PTCLDY    69  69 100 CALM      30.06S FOG
$$

ARZ056-057-069-231000-
SOUTHEAST ARKANSAS

CITY           SKY/WX    TMP DP  RH WIND       PRES   REMARKS
PINE BLUFF     CLEAR     70  68  93 S3        30.05F
STUTTGART      CLEAR     72  70  94 CALM      30.05F
MONTICELLO     CLEAR     70  68  93 CALM      30.05F

$$




USA.gov is the U.S. government's official web portal to all federal, state and local government web resources and services.